CAPE
0 323 1312 1195 715 559 15 58 36 9 30 22 64 172 376 354 138 276 235 307 546 760 932 1089 1096 1413 1549 1210 1350 1203 1157 1049 1297 1333 1254 1095 1147 1126 975 1011 1574 1576 1451 1358 1433 1595 1660 1716 1716
5 978 1238 1041 24 26 356 80 5 0 32 3 42 95 268 150 187 145 221 231 344 638 956 1144 960 1085 1370 1607 1434 945 1232 1074 1275 1304 1185 1144 1166 1125 999 974 1364 1390 1517 1466 1459 1444 1528 1440 1715
17 881 1552 1007 249 83 355 208 23 24 43 48 2 51 228 107 154 268 141 141 97 256 1121 1480 1052 811 869 1173 990 619 914 1199 1217 1225 1189 1249 1062 1026 1038 998 1291 1416 1512 1328 1294 1361 1384 1562 1549
359 1496 1177 232 367 374 533 347 291 241 285 123 38 237 157 8 294 223 114 148 219 388 455 1246 1390 1017 802 516 409 402 415 711 1226 1139 1099 1068 1084 1197 1156 1203 1393 1685 1559 1322 1330 1282 1292 1319 1436
591 432 267 475 461 540 549 479 547 72 376 172 37 262 182 105 334 156 80 185 178 37 41 143 1498 1344 1356 1253 1044 706 916 1078 995 966 1184 1233 1204 1272 1364 1266 1388 1379 1120 1105 981 1085 1327 1311 1505
709 140 261 516 456 442 504 424 514 524 336 172 189 242 442 287 193 136 182 153 58 43 87 250 1362 1239 809 658 469 400 368 171 374 646 777 1021 1189 1308 1269 1433 1166 1118 1039 977 1116 1156 1243 1469 1398
239 274 52 170 181 445 481 510 392 457 335 33 192 247 385 326 199 151 161 114 136 185 95 395 617 925 215 31 12 0 13 13 186 367 552 810 1295 1478 1295 1109 887 740 594 870 986 1064 1128 1102 1329
638 88 21 400 494 325 348 404 378 509 338 75 242 0 453 267 251 177 140 197 235 606 97 184 630 494 24 12 23 2 51 41 70 50 361 927 1244 1496 1137 776 505 738 754 882 994 1256 1314 1232 1208
245 215 49 158 161 142 116 247 254 174 296 500 373 94 544 224 230 268 275 347 332 475 246 206 255 440 87 2 80 14 36 149 92 52 344 577 1041 966 720 440 502 1036 841 729 917 1334 1270 1178 1156
17 29 30 18 35 190 94 268 355 340 386 333 89 351 522 257 321 359 298 361 574 489 266 410 148 483 555 146 183 7 17 24 126 191 143 436 696 504 737 768 811 1201 918 681 604 1100 1250 1232 836
3 13 36 18 0 32 101 298 117 457 230 217 27 26 704 417 584 376 420 484 565 674 730 598 404 695 577 315 566 21 0 46 198 278 277 639 56 155 490 755 620 802 1111 738 417 591 298 706 690
2 0 1 0 0 25 86 142 453 227 570 479 469 731 807 517 513 564 496 598 755 807 780 821 1073 748 462 358 648 47 0 12 349 373 711 935 869 333 344 246 16 155 777 884 964 156 0 49 442
0 0 9 0 0 1 7 134 127 267 331 288 626 821 720 540 323 815 730 651 684 826 913 1100 1209 832 609 760 625 308 112 167 214 192 244 874 739 336 330 379 149 172 739 1148 555 937 923 1178 789
0 0 2 0 0 14 2 61 133 134 278 412 487 642 695 623 377 753 710 715 741 535 783 810 1113 632 497 490 560 585 362 326 167 402 212 924 785 900 895 1143 679 780 1052 886 916 1026 1114 968 1126
0 1 0 0 0 0 0 1 153 26 118 454 581 583 657 728 616 549 881 858 688 777 914 877 928 1021 1252 875 753 692 464 375 125 364 687 405 836 839 239 783 239 1295 1042 925 994 888 749 962 790
0 0 7 0 0 0 0 30 271 231 202 349 513 556 706 658 636 466 229 887 815 701 627 766 818 775 841 709 978 882 955 668 816 434 1148 792 582 705 271 819 780 978 1278 817 654 725 959 868 670
0 12 11 0 0 0 0 0 33 158 225 295 439 560 682 677 597 461 343 376 331 574 632 963 838 738 929 869 1178 899 676 705 913 624 843 680 659 786 955 512 0 664 1214 760 618 556 506 776 586
0 9 0 0 0 0 0 0 0 161 63 64 484 697 710 674 699 711 590 285 383 828 703 940 1024 838 1016 1151 1208 1154 787 783 684 485 773 369 932 436 1333 981 94 789 857 748 505 836 1516 876 932
0 0 0 0 0 0 0 0 0 0 1 0 155 615 873 753 741 842 718 633 860 960 970 886 1109 1067 1185 1136 809 737 719 741 613 340 910 1186 769 847 974 872 892 1602 1298 1236 1521 1262 665 624 618
0 0 0 0 0 0 0 0 0 0 0 0 84 175 711 910 857 925 823 815 733 1259 1248 1296 1354 1362 1273 962 838 1117 568 965 690 379 772 1175 599 1174 894 0 16 1304 1465 1707 1547 1346 1124 436 652
0 0 0 0 0 0 0 0 0 0 0 0 0 106 292 913 940 1031 939 941 866 1428 1615 1575 1668 1627 1439 1603 1125 1081 1027 632 620 536 291 523 933 1201 1070 714 191 1361 1736 1115 1362 1211 959 1112 1012
0 0 0 0 0 0 0 0 0 0 0 0 0 0 58 460 950 1150 1093 952 970 1177 1409 2081 2131 2279 1940 1307 1328 1171 771 530 603 632 744 1041 855 1198 1382 1181 1552 1519 1206 0 108 1597 1319 1116 1062
0 0 0 0 0 0 0 2 6 0 2 0 10 19 61 364 676 1175 1252 1194 1087 1202 1359 1762 2106 2658 2190 1706 1797 1360 858 694 1019 941 507 233 891 834 1078 1526 1014 1393 1015 1129 1381 1606 1184 1927 1091
0 0 0 0 0 0 0 0 2 0 0 0 0 0 119 263 486 812 1404 1406 1309 1337 1541 1692 2244 2346 2598 2548 1533 1704 1242 689 497 959 856 334 1076 879 1055 1087 1728 1967 1350 1090 1188 1608 1761 1994 1670
0 0 0 0 5 1 0 0 23 0 0 13 0 0 33 79 279 671 1242 1462 1456 1501 1644 1768 2354 2584 2809 2975 2551 2117 1899 1542 861 712 618 754 771 788 660 776 1370 1739 1694 1575 1046 838 1663 1657 1490
0 0 0 0 0 11 2 0 0 0 0 0 1 14 76 164 252 666 1057 1490 1693 1633 1771 1778 2519 2730 2908 2927 2834 2791 2606 2033 1746 1058 1145 592 842 1185 1046 736 1242 1460 1694 1415 1497 1277 1346 1736 1250
0 0 0 0 0 0 25 1 3 0 0 7 36 287 264 277 506 538 1094 1427 1735 1675 2061 2002 2561 2899 2973 3153 3128 2974 2773 2217 1816 1692 1120 1099 1015 1245 862 1222 961 1544 1500 1581 1657 1265 1547 1195 1168
0 0 0 0 3 20 109 22 1 0 5 0 31 74 357 743 861 690 1026 1289 1444 1671 1744 2114 2773 2982 2990 3032 3104 3125 2998 2893 2308 1997 1230 967 1338 1183 741 932 1087 1069 1352 1160 1386 1607 1664 1364 1421
0 0 0 5 16 30 17 101 28 9 32 5 205 593 815 987 1289 1359 939 1322 1504 1552 1753 2141 2512 2812 2897 2987 2864 2913 3046 2864 2817 2434 1893 1358 1694 1284 974 1404 1059 1091 1210 1370 1353 1390 1419 1186 1004
17 7 9 3 0 0 0 127 91 0 156 726 749 854 1146 1130 1412 1783 2266 2454 1905 1712 1868 2036 2513 2439 2920 2919 2768 2873 2935 2811 2791 2431 2258 1907 1353 1620 1413 1195 832 620 1274 1269 1483 1324 1022 868 1301
CIN
0 -270 -141 -44 -8 -27 -37 -23 -89 -27 -2 -9 -11 -23 -7 -9 -37 -18 -12 -14 -11 -37 -31 -14 -3 -1 -1 -4 0 0 0 -4 0 0 0 0 0 -1 -15 -9 0 0 0 0 0 -1 0 0 -6
-211 -93 -51 -11 -28 -36 -13 -57 -17 -1 -2 -8 -4 -16 -5 -12 -3 -35 -36 -4 -18 -40 -10 -9 -8 -5 -2 0 0 -8 0 0 0 0 0 -3 -1 -4 -9 -6 -1 -1 0 0 0 0 0 0 -1
-264 -105 -11 -6 -28 -50 -11 -21 -4 -4 -6 -1 -30 -8 -3 -9 -2 -2 -44 -12 -30 -32 -15 0 -9 -6 -9 -4 -7 -27 -4 -1 0 0 0 0 0 -9 -3 -3 -1 0 0 0 0 0 0 0 -2
-120 -9 -7 -64 -20 -18 -19 -26 -38 -20 -10 -12 -12 -11 -22 -3 -2 -16 -25 -1 -10 -31 -46 -1 -3 -6 -9 -15 -24 -42 -28 -8 -2 0 0 0 0 0 0 -1 0 0 0 0 0 0 0 0 -1
-37 -84 -53 -6 -14 -16 -22 -1 -21 -56 -9 -4 -26 -10 -31 -8 -20 -5 -8 0 -9 -91 -144 -82 0 0 0 0 -7 -25 -7 0 0 -1 0 0 -1 0 0 -1 0 0 0 0 0 0 0 0 0
-19 -66 -17 -4 -9 -2 -2 -4 -5 -14 -56 -8 -8 -5 -7 -23 -11 -14 -17 -7 -13 -66 -77 -58 0 -3 -35 -37 -46 -46 -42 -64 -41 -19 -1 -3 -2 -1 0 0 0 0 0 0 0 0 -1 0 -3
-10 -25 -62 -46 -25 -4 -16 -10 -3 -24 -57 -32 -80 -79 -2 -9 -15 -12 -16 -16 -6 -10 -65 -27 -29 -13 -68 -122 -128 0 -104 -138 -47 -31 -19 -4 0 0 0 0 0 -6 -7 0 0 0 -7 -13 -11
-13 -91 -64 -22 -3 -1 -7 -2 -2 -16 -32 -71 -88 0 -4 -6 -6 -22 -21 -12 -4 -18 -49 -68 -34 -47 -151 -132 -100 -47 -63 -93 -74 -99 -26 -3 0 0 -5 -19 -20 -13 -6 0 -1 0 -3 -15 -20
-22 -30 -18 -12 -4 -13 -23 -15 -4 -4 -2 -13 -42 -421 -19 -33 -16 -22 -30 -10 -9 -19 -35 -48 -50 -36 -94 -139 -74 -97 -79 -34 -54 -76 -22 -19 -4 -15 -23 -30 -27 -13 -17 -18 -14 -5 -12 -20 -24
-28 -4 -4 -6 -5 -5 -20 -3 0 -8 -45 -55 -90 -87 -16 -7 -9 -13 -19 -1 -4 -7 -7 -64 -128 -52 -29 -64 -37 -111 -81 -82 -37 -25 -22 -32 -5 -11 -2 -10 -23 -15 -23 -27 -32 -18 -18 -24 -44
-2 -1 -2 -3 0 -6 -7 -2 -4 -23 -33 -53 -152 -44 -19 -1 -13 -31 -10 -8 -5 -15 -23 -29 -61 -14 -22 -29 -19 -84 0 -54 -29 -13 -14 -3 -56 -60 -30 -21 -18 -21 -20 -38 -41 -22 -74 -32 -7
-2 0 0 0 0 -2 -2 -6 -2 -3 -13 -14 -89 -61 -2 -1 -4 -11 -6 -3 -6 -16 -16 -12 -5 -4 -22 -43 -27 -85 -11 -89 -9 -10 -2 -8 -11 -61 -46 -40 -131 -87 -34 -26 -22 -83 0 -63 -62
0 0 -2 -2 0 -1 -5 -3 -11 0 -3 -7 -35 -1 -2 0 -3 -26 -29 -20 -16 -16 -6 -4 -5 -15 -13 -29 -30 -47 -62 -26 -10 -18 -24 -19 -15 -19 -44 -67 -85 -88 -51 -7 -24 -32 -44 -11 -6
0 0 -1 0 0 -1 -1 -5 -6 -6 -8 -7 -10 -3 -1 0 -1 -44 -36 -34 -8 -22 -18 -22 -5 -30 -25 -21 -23 -16 -15 -5 -191 -26 -44 -18 -12 -18 -11 -14 -31 -15 -8 -10 -15 -9 -5 -15 -5
0 0 0 0 0 0 0 -11 -4 -22 -26 -1 -3 -3 -3 -2 -5 -5 -38 -30 -27 -17 -13 -9 -19 -11 -2 -5 -9 -10 -40 -15 -48 -17 -7 -26 -6 -15 -23 -19 -75 -10 -11 -12 -13 -10 -10 -10 -4
0 0 -3 0 0 0 0 -22 -3 -23 -16 -2 -3 -12 -13 -18 -1 -22 -36 -12 -26 -13 -14 -26 -19 -16 -5 -3 -8 -11 -4 -22 -10 -20 -3 -6 -17 -19 -44 -52 -41 -11 -6 -12 -14 -12 -11 -7 -5
-3 -4 -11 0 0 0 0 0 -7 -24 -16 -4 -4 -8 -26 -25 -16 -30 -43 -16 -15 -10 -14 -13 -23 -24 -8 -11 -3 -9 -9 -12 -10 -10 -3 -20 -17 -6 -11 -55 0 -43 -4 -7 -4 -8 -7 -7 -5
-9 -28 -2 0 0 0 0 0 0 -19 -17 -20 -3 -6 -12 -24 -24 -24 -18 -75 -29 -32 -34 -15 -18 -18 -21 -21 -12 -7 -8 -11 -13 -27 -3 -36 -12 -22 -9 -7 -92 -58 -6 -4 -6 -11 -9 -10 -8
0 0 0 0 0 0 0 0 0 0 -4 0 -18 -3 -11 -8 -18 -29 -29 -14 -16 -39 -40 -29 -8 -17 -15 -22 -18 -10 -13 -20 -23 -25 -7 -13 -9 -5 -15 -11 -6 -6 -13 -11 -6 -10 -20 -29 -17
0 0 0 0 0 0 0 0 0 0 0 0 -27 -19 -3 -14 -8 -19 -36 -20 -11 -27 -35 -22 -18 -22 -20 -20 -26 -10 -10 -6 -18 -17 -6 -2 -9 -6 -4 0 -63 -12 -4 -9 -15 -12 -13 -16 -7
0 0 0 0 0 0 0 0 0 0 0 0 0 -18 -10 -7 -8 -23 -39 -21 -8 -16 -37 -29 -17 -18 -24 -7 -21 -14 -8 -8 -10 -11 -19 -17 -9 -8 -6 -34 -42 -5 -5 -15 -14 -23 -13 -12 -9
0 0 0 0 0 0 0 -1 0 0 0 0 0 0 -15 -5 -6 -30 -41 -36 -6 -4 -18 -17 -11 -12 -21 -11 -24 -17 -17 -19 -17 -17 -1 -3 -8 -2 -1 -8 -3 -13 -21 0 -55 -7 -12 -16 -18
0 0 0 0 0 0 0 -12 -36 0 -1 0 -9 -3 -2 -2 -4 -9 -25 -23 -5 -12 -18 -37 -31 -9 -17 -24 -12 -7 -21 -24 -8 -5 -10 -25 -9 -9 -6 -2 -7 -12 -14 -25 -4 -8 -18 -18 -18
0 0 0 0 0 0 -8 0 -21 0 0 0 0 0 -3 -7 -8 -13 -9 -17 -14 -14 -30 -40 -64 -36 -14 -14 -19 -7 -29 -33 -22 -7 -4 -28 -7 -12 -6 -4 -1 -4 -12 -20 -34 -11 -20 -18 -24
0 0 0 0 -16 -47 0 0 -14 0 0 -33 0 -9 -6 -18 -16 -14 -11 -14 -15 -8 -33 -54 -59 -55 -20 -2 -12 -11 -8 -18 -34 -15 -17 -10 -8 -13 -22 -23 -4 -2 -4 -6 -37 -38 -14 -19 -20
0 0 0 -1 0 -32 -18 -1 0 0 0 0 -3 -36 -13 -2 -7 -14 -17 -23 -23 -14 -47 -55 -70 -57 -38 -16 -17 -8 0 -5 -11 -25 -14 -25 -25 -3 -8 -18 -7 -5 -3 -4 -13 -26 -23 -15 -20
0 0 0 0 0 -1 -13 -31 -7 0 0 -4 -6 -2 -2 -8 -3 -5 -19 -20 -20 -29 -20 -52 -50 -59 -57 -24 -12 -12 -9 -12 -19 -3 -15 -11 -13 -3 -16 -12 -16 -2 -2 -4 -3 -23 -13 -8 -6
0 0 0 -4 -7 -17 -8 -32 -50 -5 -53 0 -7 -45 -6 -19 -31 -27 -6 -16 -24 -20 -24 -23 -37 -67 -55 -23 -13 -14 -14 -3 -12 -2 -30 -29 -7 -10 -5 -14 -15 -12 -3 -7 -8 -2 -4 -12 -3
-1 0 0 -3 -9 -5 -8 -15 -40 -31 -23 -49 -25 -13 -43 -55 -59 -45 -30 -8 -14 -18 -6 -15 -48 -49 -60 -29 -17 -18 -20 -21 -6 -1 -12 -24 -2 -11 -7 -5 -8 -11 -6 -4 -7 -5 -6 -7 -7
-4 -7 -5 -5 0 0 -4 -18 -60 0 -6 -9 -29 -32 -78 -105 -111 -84 -89 -67 -13 -4 -6 -10 -32 -54 -49 -18 -13 -7 -11 -24 -16 -25 -4 -25 -33 -6 -16 -15 -25 -31 -3 -9 -4 -14 -13 -14 -11
Wind_Speed
15 15 15 15 14 13 23 24 25 20 24 23 23 22 24 21 18 19 25 21 22 21 19 17 17 14 17 17 19 16 14 17 17 17 18 18 19 21 21 19 20 20 20 20 20 19 19 18 17
14 16 16 15 12 14 10 23 23 23 23 22 22 23 24 24 22 26 22 24 23 21 19 16 14 14 16 17 16 15 14 15 16 16 17 18 22 22 20 18 20 20 20 20 20 20 19 19 19
14 16 16 14 15 17 20 22 22 21 21 21 19 21 23 22 24 22 23 25 23 23 20 19 17 16 18 17 16 14 13 14 15 15 17 18 22 21 20 19 20 20 20 20 20 21 21 21 21
15 17 17 16 17 18 18 19 19 18 21 22 21 19 21 20 19 22 24 23 23 21 20 20 21 15 17 14 13 12 12 11 12 15 17 19 21 19 20 20 20 20 20 20 21 21 22 22 22
17 17 14 14 17 17 17 18 17 14 15 19 20 18 20 19 22 22 25 23 23 23 20 20 21 17 13 12 12 12 10 7 6 7 17 19 19 19 21 21 20 20 20 20 20 21 22 23 23
16 14 19 17 18 17 16 16 16 15 14 14 16 19 19 18 18 22 23 22 22 23 21 19 16 16 15 12 13 8 10 7 9 13 15 16 17 20 21 21 20 20 20 20 20 21 22 23 23
18 19 19 19 21 19 17 16 14 17 17 15 20 16 16 18 19 22 22 21 22 21 19 19 18 16 12 10 14 18 12 6 10 13 11 17 22 22 21 21 20 21 20 20 20 22 22 23 23
16 16 20 19 20 19 18 16 19 13 18 12 12 13 15 18 21 21 20 21 20 19 18 19 16 13 13 17 16 18 20 22 19 16 15 19 22 23 22 21 21 21 21 21 21 22 22 22 22
18 17 20 21 20 19 18 17 18 10 14 14 17 10 16 19 23 20 20 18 18 17 17 18 15 13 15 13 14 14 23 24 25 23 20 23 24 22 22 22 20 23 22 21 22 22 23 22 20
19 17 19 19 20 19 18 19 17 15 19 19 18 18 17 20 22 19 18 18 17 19 16 15 14 17 15 12 12 14 20 25 26 26 24 24 23 22 21 21 21 23 23 23 23 23 23 24 24
18 18 18 20 20 19 20 18 19 16 21 13 14 19 18 17 18 18 16 16 17 16 15 16 16 18 18 20 21 22 23 25 26 26 26 24 24 25 21 24 19 18 21 22 23 23 22 23 19
16 17 17 17 20 18 19 19 20 20 18 16 16 22 17 15 16 18 18 17 16 17 18 19 19 19 19 19 20 21 22 24 23 26 26 25 25 23 9 7 13 22 22 24 23 26 23 18 21
16 17 16 18 18 18 18 17 19 19 19 20 20 16 16 15 14 20 17 16 17 19 19 17 18 17 15 15 18 20 21 19 24 25 26 26 23 20 13 19 23 23 25 23 23 24 22 20 23
10 13 16 18 19 15 15 16 17 18 17 17 16 16 15 15 15 19 16 15 14 18 17 18 18 16 13 14 18 17 17 14 11 24 27 27 23 20 13 17 19 23 5 4 6 18 23 23 21
15 14 14 18 19 16 15 14 13 17 16 15 14 14 14 15 16 15 17 14 17 20 17 21 16 14 16 12 15 13 14 14 16 22 25 27 25 17 18 11 15 17 5 7 14 19 21 20 22
15 13 11 15 17 16 9 9 14 14 14 13 14 14 13 13 14 15 16 18 19 20 17 16 14 14 12 10 9 15 14 13 15 20 20 23 23 19 24 12 11 20 6 11 21 20 20 19 20
17 12 11 14 16 16 14 14 11 13 14 13 14 14 13 12 12 14 16 17 17 14 16 14 15 14 13 10 10 11 11 12 13 20 25 12 28 19 25 12 24 22 18 5 23 18 16 17 16
10 17 15 11 15 15 8 11 10 13 13 12 13 14 14 14 13 14 16 18 16 13 13 14 10 12 12 8 8 11 8 9 15 21 15 10 24 6 25 7 27 27 25 19 22 9 14 15 17
20 19 17 13 14 8 8 11 7 9 11 12 12 12 14 15 16 15 16 16 16 14 13 15 14 14 12 9 11 15 11 9 14 20 16 4 20 8 4 19 20 25 17 13 13 13 14 15 17
18 18 16 14 11 12 12 12 9 11 8 10 11 11 12 14 16 17 16 16 14 15 16 14 13 12 10 9 13 15 12 9 11 20 18 21 14 13 11 9 23 22 15 14 16 18 17 16 11
19 18 19 18 21 15 14 12 13 13 13 11 10 12 13 14 16 15 16 17 16 17 16 15 14 12 11 9 11 15 7 7 9 13 18 19 13 1 5 7 26 19 19 11 13 14 18 15 12
19 15 13 14 11 12 8 8 12 13 11 10 8 12 12 13 13 16 16 17 18 17 15 13 13 12 11 11 12 9 8 9 13 10 12 14 19 15 6 3 5 7 9 13 21 15 18 14 13
20 16 16 14 12 11 8 9 12 12 14 18 20 12 11 12 12 14 15 15 16 17 16 14 13 11 12 14 16 9 6 14 11 11 13 19 12 22 33 3 1 6 7 8 8 11 12 15 16
18 19 15 13 12 5 10 14 13 12 15 17 18 13 12 12 11 12 15 15 14 16 15 15 15 14 14 13 13 9 9 10 15 19 11 16 7 5 15 32 15 4 6 3 3 18 11 17 18
17 17 10 7 8 12 13 12 9 12 13 18 15 13 12 12 10 11 13 12 14 15 15 14 14 15 14 13 11 8 7 7 9 12 13 5 11 9 14 20 12 11 5 6 3 5 20 17 20
13 16 14 8 21 9 6 13 11 13 12 14 13 14 13 11 10 9 10 10 12 12 15 15 14 14 14 16 15 12 9 4 4 3 3 9 14 13 2 10 5 4 3 2 1 19 21 7 6
16 7 22 26 24 14 18 21 13 13 10 12 14 15 16 14 15 8 8 8 9 10 12 13 13 13 13 15 14 15 13 10 6 6 6 4 11 7 6 5 10 6 4 6 6 9 28 29 7
12 25 24 18 17 16 18 14 13 18 17 15 15 15 20 20 20 22 4 6 6 9 10 10 9 11 12 14 14 13 10 12 12 3 4 7 6 5 4 9 11 12 7 6 5 11 23 33 27
9 5 12 17 24 25 23 16 16 17 13 14 19 16 20 21 22 23 23 4 4 4 6 7 6 7 11 14 14 14 12 11 11 12 8 8 8 7 8 3 5 7 7 6 5 6 26 32 30
20 13 18 22 26 25 26 24 14 11 17 14 16 19 21 23 24 23 23 22 15 2 1 5 5 5 9 11 14 13 9 10 10 12 9 10 13 10 8 5 5 7 7 9 6 8 33 27 20
Wind_Direction
213 205 196 185 124 93 71 51 39 23 51 55 48 56 62 77 87 74 102 89 93 91 88 83 83 76 86 84 85 80 73 80 78 73 73 70 74 80 76 66 84 88 89 102 109 120 117 106 95
207 210 202 250 288 25 162 45 30 37 53 48 56 48 44 39 64 92 84 103 98 91 89 79 77 77 84 88 82 79 72 79 78 73 78 85 109 115 110 76 105 108 95 98 112 118 116 113 118
197 204 225 330 66 67 59 33 42 46 34 58 55 48 42 58 81 85 93 104 93 93 88 85 84 81 85 86 87 79 71 74 78 74 85 90 133 142 147 114 108 107 99 104 120 125 123 117 125
211 191 252 330 5 7 11 358 22 2 9 15 12 41 40 59 77 91 103 102 93 89 88 86 90 84 84 75 71 66 66 64 59 73 90 105 149 186 146 117 101 104 112 102 128 135 126 134 137
201 344 291 288 357 19 46 15 32 34 48 33 47 50 53 52 85 95 110 100 96 92 89 87 89 82 73 68 65 62 56 21 321 352 106 114 183 179 135 125 107 115 121 117 121 135 134 143 136
251 2 23 351 5 6 10 8 26 46 31 6 29 33 32 71 79 106 106 102 96 96 93 85 79 84 79 69 65 35 59 21 292 254 246 229 223 122 127 127 121 126 132 133 141 134 131 145 153
253 296 336 350 351 339 358 7 16 348 348 333 351 33 63 83 88 104 108 100 96 94 87 83 88 83 69 55 75 116 73 347 277 245 275 227 174 136 132 125 125 134 144 144 143 142 147 149 154
329 327 2 358 7 356 348 347 322 47 7 120 49 26 85 85 101 100 104 109 97 90 87 93 85 75 74 95 96 114 139 186 227 238 241 213 189 168 145 138 132 138 155 154 148 151 156 159 161
326 356 356 358 9 3 357 9 344 118 14 10 357 252 77 96 107 99 101 102 105 94 93 97 87 78 94 86 87 83 173 175 193 202 216 182 168 145 145 153 125 148 151 159 159 155 159 166 177
6 344 348 346 358 16 7 333 337 356 326 335 335 333 69 112 109 108 112 113 102 107 106 100 95 105 102 81 84 93 173 185 177 185 168 177 188 197 149 146 132 154 151 151 157 163 170 174 169
332 332 332 356 348 340 4 5 323 14 340 11 46 123 137 120 115 119 118 115 126 112 92 105 106 119 110 121 122 132 168 168 173 192 189 180 169 172 154 166 184 207 173 155 157 155 180 189 209
8 347 327 328 10 1 357 355 345 358 19 49 103 130 107 112 125 128 123 119 122 122 125 132 122 120 123 119 126 137 151 154 158 170 186 198 186 190 13 304 225 212 189 161 160 130 162 176 153
342 353 45 23 26 5 7 10 335 354 30 49 108 87 101 111 110 130 121 113 134 131 128 125 123 117 111 114 122 135 147 139 162 172 181 193 202 214 88 105 127 152 168 143 140 141 146 157 139
252 167 31 2 353 61 53 38 41 25 36 37 55 82 93 97 111 126 119 116 117 135 136 131 125 120 110 118 129 123 132 114 206 174 181 194 205 212 96 104 132 125 229 302 323 181 132 142 165
204 167 97 29 32 44 64 38 128 44 45 46 55 60 76 96 110 112 127 117 129 144 129 130 122 116 123 107 125 103 110 107 130 159 176 205 211 260 247 292 233 216 311 268 220 186 163 178 160
158 169 95 50 48 44 90 109 139 74 71 76 80 66 72 84 105 113 127 136 136 138 126 128 127 124 117 101 95 130 120 115 131 156 152 235 237 251 178 311 164 212 308 251 189 190 183 180 161
173 46 125 40 43 48 64 59 80 85 94 117 97 94 84 82 104 111 126 136 129 118 125 122 127 128 122 107 108 116 108 117 131 157 178 218 209 261 220 325 219 222 234 337 184 210 230 208 201
44 241 21 102 40 40 193 218 223 105 110 118 121 112 110 102 108 110 130 136 133 115 127 135 114 127 125 107 108 124 96 90 138 168 151 124 220 311 225 22 195 200 188 171 169 307 260 246 234
282 225 216 207 44 135 174 216 130 129 135 109 124 124 129 132 127 120 132 135 130 125 132 139 136 130 125 118 126 150 122 109 134 168 158 123 257 296 88 260 153 195 244 274 288 298 276 261 243
224 216 201 202 68 219 213 224 139 56 103 127 118 140 132 132 131 129 133 136 141 137 136 134 139 132 124 121 140 143 135 121 135 164 155 185 270 284 311 338 235 219 269 288 287 271 265 259 324
206 208 221 237 267 233 217 211 89 61 50 56 103 129 142 144 140 132 134 141 140 138 137 138 138 142 141 130 135 148 102 116 128 146 166 166 153 68 329 81 203 220 242 320 315 317 262 282 324
206 255 159 203 181 217 185 166 69 60 81 99 111 125 129 132 130 140 138 147 148 144 136 132 135 137 147 146 145 138 136 131 151 146 144 152 168 165 142 113 126 332 326 335 232 299 273 309 307
207 260 215 204 194 195 212 160 84 100 82 17 3 43 96 109 121 137 143 141 150 147 144 138 140 134 143 150 159 142 131 162 143 153 165 176 166 185 221 158 90 331 340 90 114 336 324 293 291
218 222 213 187 182 150 135 49 58 69 25 23 12 32 51 69 101 113 136 133 136 142 141 142 145 150 150 146 157 142 140 149 166 173 160 171 158 178 181 239 289 334 338 27 51 291 326 288 284
192 189 188 94 150 72 40 28 60 75 50 6 34 22 19 38 71 90 118 116 130 140 141 140 145 153 157 155 153 154 146 147 154 167 171 163 171 163 178 188 287 299 323 327 344 342 280 296 280
166 199 215 201 342 32 96 20 45 58 52 30 38 40 23 39 75 88 109 115 126 133 144 146 145 150 157 165 164 159 160 153 154 180 212 185 178 179 285 182 210 228 291 304 346 285 281 334 3
317 58 269 280 295 2 337 329 349 22 53 69 41 49 57 45 0 64 100 114 129 134 146 149 145 151 156 165 164 166 164 163 159 158 169 199 184 187 206 191 182 199 243 294 305 295 263 249 319
188 262 322 342 347 350 350 354 324 327 2 335 35 42 26 16 355 328 25 119 131 142 149 150 139 153 160 167 168 168 165 166 169 155 159 177 195 207 202 192 185 182 202 236 206 289 276 249 276
357 8 346 331 318 326 336 357 1 337 335 306 312 357 4 358 354 347 328 6 137 140 151 155 155 155 164 170 173 171 169 168 169 171 166 162 171 177 186 230 188 196 197 215 245 255 271 253 271
322 329 327 323 320 317 325 325 18 7 292 352 339 340 344 347 344 339 338 332 343 348 169 185 184 175 170 170 178 176 174 174 175 178 172 170 174 175 176 209 236 259 238 263 230 253 214 246 287